Weather in Gazi-Yurt

Russia / Republic of Ingushetia     43°15′36″N   44°50′29″E
temp.,
°C
wind,
m/s
gust,
m/s
humid.,
%
clouds,
%
prec.,
mm/h
press.,
hPa
HPBL,
m
8 may, sat
sat800:00+10sse11745 0.0 101910
03:00+9sse11765 0.0 101910
06:00+12ese11755 0.0 101823
09:00+17ene4557100 0.0 1016680
12:00+20ene555074 0.0 1014961
15:00+20ene444984 0.0 10131110
18:00+17ene377051 0.0 1013211
21:00+12e22843 0.0 101315
9 may, sun
sun900:00+12ssw118399 0.0 101110
03:00+11sse118016 0.0 100910
06:00+13ese1174100 0.0 100813
09:00+18wnw1159100 0.0 1007375
12:00+21nnw435730 0.0 10061359
15:00+16nw91078100 0.1 1009889
18:00+7wnw71593100 4.8 1017821
21:00+5w51196100 8.8 1022938
10 may, mon
mon1000:00+5sw5897100 4.5 10231001
03:00+5sw5696100 6.3 1023721
06:00+5sw4688100 0.9 1023663
09:00+8wsw4569100 1.3 10221427
12:00+10nw355961 0.3 10211459
15:00+11nnw335396 0.4 10191467
18:00+10e136794 0.2 1020173
21:00+7nw2484100 0.4 1022206
11 may, tue
tue1100:00+5wnw3492100 0.1 1022359
03:00+5nne0191100 0.1 1021164
06:00+6ene269096 0.1 1020463
09:00+9e567396 0.3 10191060
12:00+11ene546385 0.1 10181277
15:00+13ne3258100 0.1 10171297
18:00+12e346933 0.0 1018332
21:00+7e22869 0.0 101923
12 may, wed
wed1200:00+6e22905 0.0 101917
03:00+5sse11884 0.0 101810
06:00+7e11845 0.0 101861
09:00+12ne33692 0.0 1017722
12:00+16ne436329 0.0 10161046
15:00+17ne336120 0.0 10151091
18:00+16ene23720 0.0 1016150
21:00+11e32880 0.0 101626